• In Hungary
  • List of Countries
  • For 7 days
  • Water Temperature
  • Satellite Maps
  • Weather Map
  • News
  • Weather Widgets
  • user-avatar
    Login

    Hourly Weather Salzburg

    Today, 15 November, Thursday

    Time Temperature Precipitation Wind Pressure Humidity
    00:00 0°C° 0 mm 1 mps 630 mmHg 63%
    01:00 0°C° 0 mm 1 mps 631 mmHg 61%
    02:00 0°C° 0 mm 1 mps 630 mmHg 59%
    03:00 0°C° 0 mm 1 mps 630 mmHg 57%
    04:00 0°C° 0 mm 1 mps 630 mmHg 55%
    05:00 0°C° 0 mm 1 mps 630 mmHg 52%
    06:00 0°C° 0 mm 1 mps 630 mmHg 50%
    07:00 0°C° 0 mm 1 mps 630 mmHg 47%
    08:00 +2°C° 0 mm 1 mps 630 mmHg 45%
    09:00 +4°C° 0 mm 1 mps 631 mmHg 42%
    10:00 +5°C° 0 mm 0 mps 632 mmHg 40%
    11:00 +7°C° 0 mm 1 mps 632 mmHg 40%
    12:00 +8°C° 0 mm 1 mps 632 mmHg 40%
    13:00 +9°C° 0 mm 1 mps 632 mmHg 39%
    14:00 +7°C° 0 mm 1 mps 631 mmHg 49%
    15:00 +6°C° 0 mm 1 mps 630 mmHg 58%
    16:00 +4°C° 0 mm 1 mps 630 mmHg 67%
    17:00 +3°C° 0 mm 1 mps 629 mmHg 70%
    18:00 +2°C° 0 mm 1 mps 629 mmHg 73%
    19:00 +1°C° 0 mm 1 mps 629 mmHg 76%
    20:00 +1°C° 0 mm 1 mps 629 mmHg 76%
    21:00 0°C° 0 mm 1 mps 629 mmHg 75%
    22:00 0°C° 0 mm 1 mps 629 mmHg 74%
    23:00 0°C° 0 mm 1 mps 629 mmHg 74%

    Tomorrow, 16 November, Friday

    Time Temperature Precipitation Wind Pressure Humidity
    00:00 0°C° 0 mm 1 mps 629 mmHg 73%
    01:00 0°C° 0 mm 1 mps 629 mmHg 73%
    02:00 -1°C° 0 mm 1 mps 629 mmHg 73%
    03:00 -1°C° 0 mm 1 mps 629 mmHg 73%
    04:00 -1°C° 0 mm 1 mps 629 mmHg 73%
    05:00 -2°C° 0 mm 1 mps 629 mmHg 73%
    06:00 -2°C° 0 mm 1 mps 629 mmHg 74%
    07:00 -2°C° 0 mm 1 mps 629 mmHg 75%
    08:00 -1°C° 0 mm 1 mps 630 mmHg 69%
    09:00 +1°C° 0 mm 1 mps 631 mmHg 63%
    10:00 +3°C° 0 mm 1 mps 631 mmHg 57%
    11:00 +4°C° 0 mm 1 mps 631 mmHg 54%
    12:00 +3°C° 0 mm 2 mps 631 mmHg 51%
    13:00 +4°C° 0 mm 2 mps 631 mmHg 48%
    14:00 +3°C° 0 mm 2 mps 631 mmHg 55%
    15:00 +2°C° 0 mm 2 mps 630 mmHg 62%
    16:00 -1°C° 0 mm 2 mps 630 mmHg 69%
    17:00 -2°C° 0 mm 2 mps 630 mmHg 73%
    18:00 -3°C° 0 mm 2 mps 630 mmHg 78%
    19:00 -4°C° 0 mm 2 mps 629 mmHg 83%
    20:00 -4°C° 0 mm 2 mps 630 mmHg 83%
    21:00 -5°C° 0 mm 2 mps 630 mmHg 83%
    22:00 -5°C° 0 mm 2 mps 630 mmHg 83%
    23:00 -5°C° 0 mm 2 mps 630 mmHg 82%

    Day after tomorrow, 17 November, Saturday

    Time Temperature Precipitation Wind Pressure Humidity
    00:00 -5°C° 0 mm 2 mps 629 mmHg 82%
    01:00 -5°C° 0 mm 2 mps 629 mmHg 81%
    02:00 -6°C° 0 mm 2 mps 629 mmHg 80%
    03:00 -6°C° 0 mm 2 mps 629 mmHg 79%
    04:00 -6°C° 0 mm 2 mps 629 mmHg 78%
    05:00 -6°C° 0 mm 2 mps 629 mmHg 76%
    06:00 -6°C° 0 mm 2 mps 629 mmHg 75%
    07:00 -6°C° 0 mm 2 mps 629 mmHg 74%
    08:00 -4°C° 0 mm 2 mps 629 mmHg 66%
    09:00 -3°C° 0 mm 2 mps 630 mmHg 59%
    10:00 -1°C° 0 mm 2 mps 631 mmHg 51%
    11:00 +1°C° 0 mm 2 mps 631 mmHg 48%
    12:00 +1°C° 0 mm 3 mps 631 mmHg 44%
    13:00 +2°C° 0 mm 3 mps 631 mmHg 41%
    14:00 +2°C° 0 mm 2 mps 630 mmHg 45%
    15:00 +1°C° 0 mm 2 mps 630 mmHg 50%
    16:00 -1°C° 0 mm 2 mps 629 mmHg 54%
    17:00 -3°C° 0 mm 2 mps 629 mmHg 57%
    18:00 -4°C° 0 mm 2 mps 629 mmHg 60%
    19:00 -5°C° 0 mm 2 mps 628 mmHg 63%
    20:00 -5°C° 0 mm 2 mps 628 mmHg 62%
    21:00 -6°C° 0 mm 2 mps 628 mmHg 61%
    22:00 -6°C° 0 mm 2 mps 628 mmHg 60%
    23:00 -6°C° 0 mm 2 mps 628 mmHg 58%

    18 November, Sunday

    Time Temperature Precipitation Wind Pressure Humidity
    00:00 -6°C° 0 mm 2 mps 628 mmHg 56%
    01:00 -7°C° 0 mm 2 mps 627 mmHg 54%
    02:00 -7°C° 0 mm 2 mps 627 mmHg 53%
    03:00 -7°C° 0 mm 2 mps 627 mmHg 51%
    04:00 -7°C° 0 mm 2 mps 627 mmHg 50%
    05:00 -7°C° 0 mm 2 mps 627 mmHg 51%
    06:00 -7°C° 0 mm 2 mps 627 mmHg 52%
    07:00 -7°C° 0 mm 2 mps 627 mmHg 53%
    08:00 -6°C° 0 mm 2 mps 627 mmHg 49%
    09:00 -4°C° 0 mm 2 mps 627 mmHg 46%
    10:00 -2°C° 0 mm 2 mps 628 mmHg 43%
    11:00 -1°C° 0 mm 2 mps 628 mmHg 42%
    12:00 +1°C° 0 mm 2 mps 628 mmHg 41%
    13:00 +2°C° 0 mm 2 mps 628 mmHg 40%
    14:00 +1°C° 0 mm 2 mps 627 mmHg 46%
    15:00 0°C° 0 mm 1 mps 626 mmHg 53%
    16:00 -1°C° 0 mm 1 mps 625 mmHg 59%
    17:00 -2°C° 0 mm 1 mps 624 mmHg 63%
    18:00 -3°C° 0 mm 1 mps 624 mmHg 67%
    19:00 -4°C° 0 mm 1 mps 623 mmHg 72%
    20:00 -4°C° 0 mm 1 mps 623 mmHg 73%
    21:00 -6°C° 0 mm 1 mps 623 mmHg 75%
    22:00 -6°C° 0 mm 1 mps 623 mmHg 76%
    23:00 -6°C° 0 mm 1 mps 622 mmHg 77%

    19 November, Monday

    Time Temperature Precipitation Wind Pressure Humidity
    00:00 -6°C° 0 mm 1 mps 622 mmHg 77%
    01:00 -6°C° 0 mm 1 mps 622 mmHg 78%
    02:00 -6°C° 0 mm 1 mps 621 mmHg 80%
    03:00 -6°C° 0 mm 1 mps 621 mmHg 81%
    04:00 -6°C° 0 mm 1 mps 621 mmHg 83%
    05:00 -6°C° 0.1 mm 1 mps 620 mmHg 85%
    06:00 -7°C° 0.1 mm 1 mps 620 mmHg 86%
    07:00 -7°C° 0.1 mm 1 mps 620 mmHg 88%
    08:00 -6°C° 0.2 mm 1 mps 620 mmHg 84%
    09:00 -6°C° 0.2 mm 1 mps 620 mmHg 80%
    10:00 -4°C° 0.2 mm 1 mps 620 mmHg 76%
    11:00 -4°C° 0.2 mm 1 mps 620 mmHg 74%
    12:00 -3°C° 0.2 mm 1 mps 620 mmHg 72%
    13:00 -5°C° 0.2 mm 2 mps 620 mmHg 70%
    14:00 -5°C° 0.2 mm 2 mps 619 mmHg 74%
    15:00 -6°C° 0.2 mm 2 mps 619 mmHg 78%
    16:00 -4°C° 0.2 mm 1 mps 618 mmHg 82%
    17:00 -6°C° 0.2 mm 1 mps 618 mmHg 85%
    18:00 -6°C° 0.2 mm 1 mps 618 mmHg 88%
    19:00 -7°C° 0.2 mm 1 mps 618 mmHg 91%
    20:00 -7°C° 0.2 mm 1 mps 618 mmHg 92%
    21:00 -7°C° 0.2 mm 1 mps 618 mmHg 92%
    22:00 -7°C° 0.2 mm 1 mps 618 mmHg 93%
    23:00 -8°C° 0 mm 1 mps 617 mmHg 93%

    20 November, Tuesday

    Time Temperature Precipitation Wind Pressure Humidity
    00:00 -8°C° 0 mm 1 mps 617 mmHg 93%
    01:00 -8°C° 0 mm 1 mps 617 mmHg 94%
    02:00 -9°C° 0 mm 1 mps 616 mmHg 93%
    03:00 -9°C° 0 mm 1 mps 616 mmHg 92%
    04:00 -9°C° 0 mm 1 mps 615 mmHg 91%
    05:00 -9°C° 0 mm 1 mps 615 mmHg 91%
    06:00 -9°C° 0 mm 1 mps 614 mmHg 90%
    07:00 -9°C° 0 mm 1 mps 614 mmHg 89%
    08:00 -8°C° 0 mm 1 mps 614 mmHg 82%
    09:00 -6°C° 0 mm 1 mps 615 mmHg 75%
    10:00 -4°C° 0 mm 1 mps 615 mmHg 68%
    11:00 -3°C° 0 mm 1 mps 615 mmHg 67%
    12:00 -5°C° 0 mm 2 mps 614 mmHg 65%
    13:00 -4°C° 0 mm 2 mps 614 mmHg 64%
    14:00 -4°C° 0.1 mm 2 mps 614 mmHg 69%
    15:00 -5°C° 0.1 mm 2 mps 613 mmHg 74%
    16:00 -4°C° 0.1 mm 1 mps 612 mmHg 80%
    17:00 -4°C° 0.1 mm 1 mps 612 mmHg 83%
    18:00 -6°C° 0.1 mm 1 mps 612 mmHg 87%
    19:00 -6°C° 0.1 mm 1 mps 611 mmHg 91%
    20:00 -6°C° 0.1 mm 1 mps 611 mmHg 91%
    21:00 -6°C° 0.1 mm 1 mps 610 mmHg 92%
    22:00 -6°C° 0.1 mm 1 mps 610 mmHg 92%
    23:00 -6°C° 0.1 mm 1 mps 610 mmHg 92%
    Show more